Location: Newark
(34.4697°S, 57.8467°W)
Time: 03:16:04
(UTC+00:00)

N. Korean satellite - Pass Details

Date: 21 July 2019
Orbit: 457 x 507 km, 97.2° (Epoch: 21 August)

Event Time Altitude Azimuth Distance (km) Brightness Sun altitude
Rises 22:11:31 0° 178° (S) 2,529 10.0 -14.1°
Reaches altitude 10° 22:13:40 10° 185° (S) 1,638 9.1 -14.5°
Maximum altitude 22:16:57 38° 254° (WSW) 722 7.9 -15.2°
Drops below altitude 10° 22:20:11 10° 324° (NW) 1,606 9.9 -15.8°
Sets 22:22:16 0° 332° (NNW) 2,471 10.8 -16.2°
